Date,TemperatureHighF,TemperatureAvgF,TemperatureLowF,DewpointHighF,DewpointAvgF,DewpointLowF,HumidityHigh,HumidityAvg,HumidityLow,PressureMaxIn,PressureMinIn,WindSpeedMaxMPH,WindSpeedAvgMPH,GustSpeedMaxMPH,PrecipitationSumIn
2013-3-1,53,52,49,40,39,36,61,61,60,29.75,29.66,17,8,19,0.00
2013-3-2,51,49,45,37,34,32,60,57,54,29.76,29.68,19,8,22,0.00
2013-3-3,52,47,43,36,32,29,56,55,52,29.72,29.64,21,9,21,1.92
2013-3-4,55,48,41,38,30,24,53,50,45,29.84,29.69,31,14,31,0.00
2013-3-5,58,50,41,42,33,24,55,51,42,30.07,29.84,22,8,30,0.00
2013-3-6,53,48,45,37,34,32,61,58,54,30.06,29.90,44,24,47,0.01
2013-3-7,48,46,43,34,32,30,61,59,58,30.02,29.88,36,18,38,0.00
2013-3-8,45,43,42,33,30,28,65,59,58,30.12,29.95,29,13,32,0.05
2013-3-9,61,54,42,47,39,30,61,57,48,30.37,30.19,20,8,20,0.00
2013-3-10,56,50,46,41,35,30,57,55,52,30.43,30.35,14,7,17,0.00
2013-3-11,56,51,46,42,36,32,60,58,56,30.38,30.17,14,6,15,0.00
2013-3-12,54,52,50,45,41,37,71,65,60,30.17,29.75,40,14,43,0.35
2013-3-13,62,57,50,46,42,38,69,59,51,29.87,29.78,26,10,27,0.00
2013-3-14,56,51,45,38,32,25,53,48,45,29.93,29.82,30,13,32,0.00
2013-3-15,50,45,39,32,25,19,50,46,41,29.97,29.75,28,13,32,0.00
2013-3-16,50,48,44,32,29,26,50,49,47,29.92,29.77,23,7,23,0.00
2013-3-17,54,49,43,33,28,24,50,45,37,30.34,29.92,26,10,26,1.56
2013-3-18,47,43,40,27,23,19,57,45,36,30.48,30.14,33,15,35,0.00
2013-3-19,48,44,40,36,32,27,65,62,58,30.14,29.62,50,21,50,0.25
2013-3-20,55,49,41,36,32,26,61,52,47,29.87,29.76,32,12,34,1.83
2013-3-21,52,49,45,32,30,28,50,48,43,29.87,29.77,16,6,19,0.00
2013-4-25,71,69,66,53,52,49,57,54,52,30.30,30.16,15,5,15,3.73
2013-4-26,70,67,60,52,48,42,53,51,44,30.42,30.30,17,5,18,0.00
2013-4-27,70,66,59,51,47,42,53,51,47,30.44,30.34,17,5,17,0.00
2013-4-28,69,64,57,51,46,40,53,52,49,30.38,30.27,16,6,16,0.01
2013-4-29,66,64,60,49,46,44,54,53,52,30.31,30.26,13,6,13,0.00
2013-4-30,70,66,58,52,48,42,55,52,49,30.38,30.27,14,7,14,0.00
2013-5-1,70,58,48,52,48,41,91,66,44,30.51,30.37,16,5,16,0.00
2013-5-2,63,53,45,59,51,42,95,78,52,30.49,30.34,23,4,23,0.00
2013-5-3,52,50,47,50,47,42,92,78,64,30.48,30.38,25,11,25,0.00
2013-5-4,52,49,46,49,44,40,92,81,69,30.39,30.28,23,10,23,0.00
2013-5-5,52,47,42,48,43,37,90,85,78,30.33,30.26,19,10,20,0.00
2013-5-6,54,49,45,51,45,40,97,89,84,30.32,30.18,15,8,15,0.00
2013-5-7,52,50,45,54,49,43,98,98,97,30.21,30.13,12,6,13,0.00
2013-5-8,58,54,51,52,50,47,99,98,96,30.17,30.05,30,10,30,0.13
2013-5-9,59,54,51,52,49,47,100,99,97,30.06,29.88,14,6,15,0.14
2013-5-10,73,60,53,63,56,48,99,85,54,30.00,29.94,16,6,16,0.01
2013-5-11,64,59,56,56,54,52,98,94,82,29.94,29.72,33,12,33,0.30
2013-5-12,68,59,54,58,54,49,100,74,41,29.88,29.64,29,9,29,0.01
2013-5-13,56,52,49,49,44,40,58,50,38,30.07,29.88,26,11,26,0.00
2013-5-14,57,51,45,46,42,36,76,54,34,30.10,30.02,26,9,26,0.00
2013-5-15,59,54,47,51,45,39,93,80,53,30.11,29.72,34,9,34,0.01
2013-5-16,72,61,50,55,51,46,97,74,44,29.81,29.71,23,8,24,0.00
2013-5-17,68,61,55,57,54,48,84,58,40,30.22,29.81,18,6,18,0.00
2013-5-18,66,58,52,58,53,48,92,76,49,30.33,30.22,20,7,21,0.00
2013-5-19,59,56,55,51,49,47,98,89,70,30.38,30.22,24,7,25,0.04
2013-5-20,74,63,57,66,57,49,99,92,74,30.22,29.96,21,8,22,0.01
2013-5-21,80,64,57,68,64,59,99,91,67,29.98,29.84,25,6,26,0.01
2013-5-22,64,58,53,63,58,52,99,96,89,29.97,29.88,22,8,22,0.00
2013-5-23,70,64,61,66,62,60,98,95,88,29.95,29.82,32,19,32,0.22
2013-5-24,68,60,50,66,62,59,99,93,84,29.84,29.67,27,10,28,0.21
2013-5-25,50,48,47,59,52,46,96,88,80,29.87,29.78,34,13,36,0.09
2013-5-26,60,53,48,52,47,42,81,66,52,30.17,29.85,33,13,35,0.00
2013-5-27,70,59,50,51,49,45,83,59,30,30.21,30.12,25,11,26,0.00
2013-5-28,65,56,51,58,54,51,97,87,59,30.24,30.16,23,5,23,0.06
2013-5-29,70,61,57,66,59,55,97,92,82,30.17,30.01,21,7,21,0.05
2013-5-30,85,71,59,70,61,54,97,79,52,30.11,30.04,20,7,20,0.00
2013-5-31,86,71,60,64,60,54,94,79,55,30.12,29.99,23,5,23,0.00
2013-6-1,78,69,61,64,58,50,94,84,69,30.03,29.94,30,10,30,0.00
2013-6-2,74,68,64,65,58,51,95,87,75,29.94,29.82,32,18,38,0.00
2013-6-3,69,65,62,62,57,50,98,95,90,29.88,29.81,32,11,32,0.13
2013-6-4,70,63,57,58,50,44,92,58,43,30.09,29.85,26,8,26,0.00
2013-6-5,66,62,57,55,51,45,84,70,56,30.22,30.09,16,7,16,0.00
2013-6-6,64,60,58,62,58,48,98,92,81,30.19,30.06,17,8,17,0.00
2013-6-7,66,58,57,58,56,54,99,97,93,30.06,29.67,41,18,41,1.37
2013-6-8,74,65,56,65,61,56,99,88,70,30.03,29.52,33,12,33,0.57
2013-6-9,78,69,60,64,55,47,93,73,49,30.19,30.02,19,5,19,0.00
2013-6-10,64,61,59,62,58,49,98,95,84,30.19,29.91,28,8,28,1.19
2013-6-11,74,68,59,70,65,58,99,91,77,29.91,29.58,30,12,30,0.29
2013-6-12,70,66,63,63,56,48,81,69,56,29.85,29.63,25,10,25,0.00
2013-6-13,63,59,56,58,56,51,95,89,73,29.83,29.51,47,13,47,0.20
2013-6-14,67,60,54,58,54,50,96,83,62,29.83,29.52,34,12,35,0.13
2013-6-15,76,67,60,63,59,52,91,70,37,29.96,29.83,20,8,21,0.13
2013-6-16,75,67,60,63,57,47,93,82,52,29.97,29.77,30,8,30,0.00
2013-6-17,80,70,64,63,56,50,95,82,67,29.94,29.83,25,7,27,0.00
2013-6-18,67,63,60,58,54,49,98,94,88,29.92,29.84,20,6,20,0.13
2013-6-19,75,66,59,68,62,53,95,76,42,30.14,29.86,17,6,17,0.00
2013-6-20,73,66,61,63,54,46,91,73,44,30.29,30.14,20,8,21,0.00
2013-6-21,76,69,63,57,53,48,82,67,50,30.31,30.25,22,10,22,0.00
2013-6-22,76,68,64,62,55,49,94,79,61,30.27,30.16,19,7,19,0.00
2013-6-23,80,72,65,60,56,52,95,82,60,30.21,30.08,26,10,27,0.00
2013-6-24,90,77,69,62,57,51,98,80,53,30.08,29.92,21,8,23,0.00
2013-6-25,86,76,68,61,56,51,91,79,62,29.98,29.77,24,7,24,0.00
2013-6-26,82,76,68,64,56,51,93,77,65,29.84,29.75,26,6,26,0.00
2013-6-27,72,67,65,62,57,50,100,97,86,29.83,29.67,22,6,23,0.17
2013-6-28,78,72,69,65,60,55,100,95,82,29.67,29.52,32,14,32,0.00
2013-6-29,77,72,69,69,64,58,99,93,77,29.73,29.50,23,11,24,0.01
2013-6-30,73,71,69,69,57,49,98,95,85,29.96,29.73,21,8,22,0.06
2013-7-1,76,72,69,66,53,47,99,97,91,30.11,29.96,23,9,23,0.01
2013-7-2,77,73,70,67,58,49,98,94,87,30.20,30.11,24,12,25,0.00
2013-7-3,78,75,70,65,60,55,98,91,82,30.26,30.19,24,11,25,0.00
2013-7-4,85,78,74,68,61,55,97,88,74,30.25,30.16,26,10,26,0.00
2013-7-5,87,79,76,70,60,53,90,83,67,30.21,30.09,23,11,23,0.00
2013-7-6,90,82,76,72,58,49,90,77,55,30.13,30.00,22,9,23,0.00
2013-7-7,88,81,77,69,56,47,90,79,65,30.04,29.92,21,8,21,0.00
2013-7-8,88,80,75,63,56,50,87,74,48,30.04,29.94,23,10,23,0.00
2013-7-9,77,74,70,63,54,45,96,92,83,30.09,30.02,16,5,16,0.01
2013-7-10,79,76,72,65,60,53,98,93,85,30.04,29.81,25,9,25,0.00
2013-7-11,77,76,73,62,57,51,96,92,88,29.91,29.81,23,5,23,0.04
2013-7-12,74,71,68,62,57,53,95,89,82,30.15,29.91,24,10,24,0.00
2013-7-13,72,69,68,64,60,56,100,99,95,30.31,30.14,23,12,24,0.11
2013-7-14,88,77,69,64,58,53,100,90,61,30.33,30.22,17,5,17,0.01
2013-7-15,90,81,73,67,57,50,95,78,57,30.23,30.11,17,4,17,0.00
2013-7-16,89,81,73,62,54,49,89,72,54,30.16,30.10,11,3,12,0.00
2013-7-17,84,76,70,66,56,48,97,88,73,30.19,30.06,15,5,15,0.00
2013-7-18,94,83,76,67,58,51,92,76,48,30.06,29.94,14,4,14,0.00
2013-7-19,92,82,75,71,60,48,96,82,57,29.96,29.78,34,10,34,0.00
2013-7-20,88,82,77,70,61,47,93,79,62,29.83,29.69,28,10,30,0.00
2013-7-21,80,73,70,60,47,41,96,83,68,29.99,29.83,15,3,15,0.00
2013-7-22,72,70,69,66,52,44,100,97,93,29.99,29.85,17,11,17,0.00
2013-7-23,83,75,70,65,53,44,100,93,77,29.85,29.57,25,8,25,0.42
2013-7-24,82,75,70,67,51,43,98,86,73,29.91,29.60,14,3,16,0.00
2013-7-25,70,64,61,60,55,44,95,85,73,30.05,29.91,22,10,24,0.08
2013-7-26,71,66,62,61,56,49,95,91,87,30.06,29.94,23,8,23,0.05
2013-7-27,79,73,68,63,55,46,95,87,63,30.08,29.98,17,6,18,0.00
2013-7-28,76,72,69,60,52,48,97,91,77,30.02,29.95,16,3,16,0.00
2013-7-29,81,75,71,65,57,51,98,89,70,30.06,29.96,15,5,16,0.00
2013-7-30,78,73,68,60,55,50,85,68,53,30.13,30.06,20,6,22,0.00
2013-7-31,79,72,66,59,52,47,90,73,46,30.15,30.06,19,4,19,0.00
2013-8-1,76,72,68,64,49,40,92,84,69,30.06,29.87,22,6,23,0.09
2013-8-2,81,74,70,64,52,45,96,80,52,29.91,29.80,22,8,22,0.06
2013-8-3,77,72,70,65,56,46,93,80,65,29.91,29.83,20,6,21,0.03
2013-8-4,78,71,66,63,53,47,94,71,50,29.92,29.81,20,4,21,0.01
2013-8-5,76,69,64,54,50,46,79,61,39,30.05,29.92,22,5,22,0.00
2013-8-6,74,69,64,59,52,48,88,76,64,30.16,30.05,17,8,17,0.00
2013-8-7,72,70,68,58,52,48,86,77,68,30.19,30.12,21,10,21,0.00
2013-8-8,78,74,71,65,57,50,93,87,78,30.13,30.05,25,12,27,0.05
2013-8-9,77,74,73,67,62,56,96,94,89,30.06,29.81,36,15,36,0.14
2013-8-10,80,75,70,62,55,50,96,76,55,30.04,29.82,23,6,25,0.00
2013-8-11,78,71,64,59,51,46,86,62,43,30.11,30.04,15,4,15,0.00
2013-8-12,74,71,69,60,53,47,96,89,71,30.06,29.94,12,2,12,0.51
2013-8-13,71,70,68,58,53,47,98,95,89,29.95,29.70,18,4,18,0.23
2013-8-14,73,68,63,59,50,45,96,68,53,30.01,29.71,24,8,24,0.00
2013-8-15,75,68,62,59,53,47,79,65,41,30.14,30.01,20,7,21,0.00
2013-8-16,77,70,65,60,54,48,90,72,40,30.22,30.12,15,4,16,0.00
2013-8-17,79,71,65,59,53,47,91,74,49,30.28,30.21,12,2,13,0.00
2013-8-18,71,68,66,62,56,51,95,85,67,30.28,30.12,15,5,15,0.00
2013-8-19,77,71,64,61,55,49,90,77,62,30.12,30.01,16,5,17,0.01
2013-8-20,84,75,68,62,54,49,90,73,46,30.13,30.02,18,6,19,0.00
2013-8-21,85,75,68,59,53,47,96,78,45,30.17,30.06,16,4,17,0.00
2013-8-22,76,73,70,65,57,49,96,92,84,30.07,29.86,22,6,22,0.34
2013-8-23,78,72,68,64,57,49,97,80,51,30.11,29.85,14,3,14,0.00
2013-8-24,71,68,63,59,55,51,89,69,58,30.35,30.10,17,6,18,0.00
2013-8-25,80,70,63,60,55,47,93,69,27,30.38,30.22,18,5,18,0.00
2013-8-26,77,72,70,65,58,53,96,77,65,30.23,29.92,22,9,24,0.29
2013-8-27,77,72,69,67,58,51,97,93,80,29.92,29.81,18,4,20,0.58
2013-8-28,74,70,68,62,56,48,99,96,90,29.92,29.86,17,4,17,0.00
2013-8-29,74,69,65,63,57,51,99,90,81,30.05,29.91,21,10,21,0.00
2013-8-30,79,69,62,62,57,52,95,88,71,30.04,29.87,19,7,19,0.00
2013-8-31,77,74,72,67,59,56,95,91,86,29.88,29.82,26,13,27,0.00
2013-9-1,77,74,73,66,58,52,97,94,90,29.89,29.83,25,10,25,0.03
2013-9-2,76,74,72,65,56,51,99,97,91,29.86,29.72,15,5,15,0.00
2013-9-3,73,71,68,67,60,54,99,95,85,29.86,29.71,16,4,23,0.55
2013-9-4,77,71,66,61,56,50,85,71,49,29.96,29.85,22,7,22,0.00
2013-9-5,75,70,63,62,54,47,87,69,51,30.13,29.90,20,6,20,0.00
2013-9-6,68,62,58,55,50,45,74,59,44,30.25,30.13,22,7,23,0.00
2013-9-7,73,67,61,58,53,47,78,68,43,30.13,29.91,21,8,21,0.00
2013-9-8,76,70,61,60,53,46,81,68,48,30.08,29.79,22,8,22,0.00
2013-9-9,68,63,56,57,51,48,77,64,55,30.26,30.08,26,9,26,0.00
2013-9-10,75,70,66,64,59,53,95,85,75,30.19,30.05,33,14,35,0.03
2013-9-11,84,76,71,64,59,54,96,88,75,30.12,30.01,21,8,21,0.00
2013-9-12,78,73,69,66,60,56,97,93,85,30.01,29.70,37,12,38,0.36
2013-9-13,76,70,62,63,57,51,98,88,72,29.79,29.62,25,4,27,0.31
2013-9-14,67,62,56,59,54,49,87,75,62,30.09,29.79,18,6,18,0.00
2013-9-15,68,61,56,57,53,47,85,71,36,30.20,30.09,17,5,18,0.00
2013-9-16,68,63,55,58,55,50,90,78,64,30.24,30.04,24,5,24,0.00
2013-9-17,62,55,49,55,48,44,75,59,44,30.43,30.23,27,9,28,0.00
2013-9-18,69,61,56,53,50,45,81,65,26,30.35,30.19,15,4,15,0.00
2013-9-19,73,64,58,57,53,47,93,75,41,30.19,30.08,16,5,17,0.00
2013-9-20,71,65,59,61,55,48,97,88,69,30.11,30.03,18,5,18,0.00
2013-9-21,72,68,62,64,57,51,94,90,81,30.04,29.73,27,10,29,0.00
2013-9-22,71,66,56,65,57,50,97,80,59,29.87,29.65,38,9,38,0.59
2013-9-23,63,57,52,52,50,46,80,67,54,30.02,29.87,23,8,23,0.00
2013-9-24,68,58,50,52,49,46,81,66,45,30.03,29.84,24,8,24,0.00
2013-9-25,69,62,56,55,51,46,87,70,47,29.96,29.88,20,4,20,0.00
2013-9-26,65,62,59,63,56,50,86,75,60,30.10,29.96,20,8,20,0.00
2013-9-27,65,62,58,59,57,55,86,77,67,30.26,30.10,18,6,19,0.00
2013-9-28,68,62,56,69,61,55,92,81,67,30.32,30.24,12,3,13,0.00
2013-9-29,63,60,57,61,58,56,92,81,68,30.24,30.09,16,8,16,0.00
2013-9-30,67,61,57,67,59,54,94,84,63,30.09,29.96,13,4,13,0.00
2013-10-1,75,66,59,67,62,56,92,76,53,29.98,29.86,17,4,18,0.00
2013-10-2,77,69,63,68,64,60,94,80,60,29.98,29.87,23,4,23,0.00
2013-10-3,74,67,62,67,62,59,89,68,40,30.10,29.98,15,4,16,0.00
2013-10-4,75,66,62,67,61,56,94,86,71,30.07,29.98,18,5,18,0.00
2013-10-5,66,64,62,65,60,57,94,91,83,30.10,30.03,16,6,16,0.00
2013-10-6,65,63,62,60,58,56,98,93,88,30.16,30.08,24,14,24,0.17
2013-10-7,72,69,64,68,64,58,99,92,76,30.08,29.85,38,13,38,0.00
2013-10-8,66,62,57,64,60,56,83,62,47,30.33,29.92,21,8,21,0.00
2013-10-9,61,58,54,56,51,48,83,74,61,30.42,30.32,29,17,30,0.00
2013-10-10,65,60,54,56,52,48,89,84,80,30.32,30.10,26,16,26,0.00
2013-10-11,68,63,59,60,57,54,91,83,51,30.11,30.04,26,14,26,0.00
2013-10-12,65,61,58,58,54,50,90,77,51,30.33,30.09,34,18,34,0.00
2013-10-13,60,57,55,54,50,48,89,81,70,30.42,30.31,29,16,30,0.00
2013-10-14,58,55,52,53,50,46,88,80,63,30.40,30.27,15,5,15,0.00
2013-10-15,62,59,53,58,52,47,91,81,65,30.28,30.16,18,8,18,0.00
2013-10-16,64,60,55,55,53,50,94,87,79,30.16,29.93,23,5,23,0.00
2013-10-17,68,63,59,60,56,53,96,92,80,29.94,29.74,23,7,23,0.00
2013-10-18,66,64,60,59,57,52,96,71,52,29.96,29.66,30,12,31,0.01
2013-10-19,64,60,54,53,50,48,89,72,54,30.01,29.76,17,5,17,0.02
2013-10-20,62,59,55,53,51,48,94,63,42,30.06,29.72,27,10,28,0.03
2013-10-21,64,59,53,54,49,44,77,63,41,30.15,30.01,21,6,21,0.00
2013-10-22,66,60,54,54,51,48,87,75,62,30.02,29.73,18,8,19,0.00
2013-10-23,54,51,49,49,41,36,73,59,51,29.82,29.62,24,7,24,0.01
2013-10-24,54,49,45,40,37,35,74,59,40,29.93,29.72,26,12,29,0.00
2013-10-25,51,50,49,38,37,34,59,53,48,30.22,30.09,24,8,26,0.00
2013-10-26,54,51,47,40,36,33,76,61,43,30.22,29.95,37,12,37,0.00
2013-10-27,58,53,49,44,39,35,74,53,39,30.11,29.86,26,10,26,0.02
2013-10-28,58,53,47,44,39,34,65,55,47,30.34,30.11,27,8,27,0.00
2013-10-29,52,47,44,39,35,32,70,57,43,30.44,30.34,22,6,22,0.00
2013-10-30,59,53,46,45,39,32,93,74,56,30.38,30.21,17,4,17,0.00
2013-10-31,64,59,52,55,48,43,96,91,82,30.26,29.85,30,11,32,0.03
2013-11-1,67,63,60,59,56,54,94,88,80,29.85,29.57,50,18,51,0.05
2013-11-2,62,59,57,58,54,50,93,79,65,29.75,29.62,18,4,18,0.00
2013-11-3,57,48,38,52,45,36,83,67,46,30.43,29.75,28,10,28,0.00
2013-11-4,45,41,36,43,35,29,68,54,39,30.70,30.43,26,10,29,0.00
2013-11-5,51,47,42,45,38,32,83,71,60,30.71,30.53,19,7,22,0.00
2013-11-6,59,54,47,52,45,38,94,83,67,30.54,30.09,21,6,22,0.00
2013-11-7,62,56,46,55,52,44,98,89,69,30.09,29.72,29,10,29,0.21
2013-11-8,50,45,42,44,40,34,72,61,46,30.19,29.90,31,13,32,0.00
2013-11-9,49,45,41,38,35,31,72,61,50,30.30,30.06,25,8,27,0.00
2013-11-10,59,52,49,45,40,36,75,63,46,30.06,29.77,37,12,38,0.00
2013-11-11,53,48,44,41,37,33,70,59,52,30.19,29.97,31,12,33,0.00
2013-11-12,52,39,32,38,32,23,91,67,54,30.25,29.91,29,13,33,0.03
2013-11-13,40,34,30,34,26,21,71,55,37,30.34,30.25,31,11,33,0.00
2013-11-14,50,44,36,35,29,24,76,54,36,30.26,30.14,34,12,34,0.00
2013-11-15,55,48,43,42,35,27,91,68,39,30.27,30.19,17,6,20,0.00
2013-11-16,57,51,45,48,41,36,94,77,52,30.35,30.24,14,4,14,0.00
2013-11-17,57,55,50,48,45,41,99,96,92,30.32,29.86,16,7,17,0.01
2013-11-18,63,58,53,54,51,44,99,72,42,29.86,29.60,40,11,40,0.25
2013-11-19,53,44,36,44,38,32,65,53,42,30.34,29.73,32,15,33,0.00
2013-11-20,44,37,32,38,32,26,63,51,30,30.64,30.34,22,8,23,0.00
2013-11-21,48,43,37,39,33,26,81,67,50,30.66,30.42,15,4,15,0.00
2013-11-22,54,51,48,45,41,37,96,90,81,30.42,29.88,19,5,20,0.08
2013-11-23,54,45,34,46,41,29,91,60,33,29.99,29.86,32,13,33,0.01
2013-11-24,34,27,24,29,18,12,60,48,37,30.31,29.89,50,21,50,0.00
2013-11-25,36,29,23,26,17,10,66,59,50,30.48,30.30,35,11,37,0.00
2013-11-26,51,42,36,38,26,21,97,65,49,30.36,29.96,26,9,26,0.12
2013-11-27,59,51,40,52,46,38,99,93,69,29.95,29.24,48,18,49,0.81
2013-11-28,41,34,31,39,32,28,79,57,41,30.50,29.63,38,13,38,0.00
2013-11-29,36,33,30,36,29,25,61,54,48,30.75,30.49,23,6,23,0.00
2013-11-30,42,33,26,31,26,21,72,64,53,30.80,30.43,18,7,19,0.00
2013-12-1,50,46,40,39,35,29,98,88,68,30.43,30.03,19,4,19,0.05
2013-12-2,45,41,38,38,36,35,98,94,86,30.03,29.92,11,2,11,0.00
2013-12-3,48,42,36,44,38,33,97,88,74,30.01,29.89,16,4,16,0.00
2013-12-4,49,44,40,44,39,34,91,77,65,30.19,30.01,12,2,13,0.00
2013-12-5,54,51,48,47,43,40,99,96,90,30.19,29.98,18,6,18,0.00
2013-12-6,55,48,39,48,46,42,99,95,87,30.17,29.91,20,8,21,0.26
2013-12-7,40,37,33,42,38,32,95,76,56,30.52,30.08,25,11,28,0.19
2013-12-8,35,33,31,32,28,27,91,68,55,30.64,30.44,26,8,26,0.00
2013-12-9,47,40,32,38,34,27,98,95,84,30.45,29.93,38,16,38,0.05
2013-12-10,42,36,33,36,33,26,96,84,49,30.09,29.82,33,9,35,0.19
2013-12-11,35,33,31,30,25,21,68,59,49,30.32,30.09,31,14,33,0.00
2013-12-12,32,26,24,29,23,18,75,58,44,30.35,30.14,27,10,29,0.00
2013-12-13,35,31,26,26,20,14,72,57,50,30.38,30.09,37,15,41,0.00
2013-12-14,40,26,20,27,20,16,97,83,57,30.58,29.97,45,18,45,0.09
2013-12-15,44,39,32,35,33,27,98,97,93,29.97,29.42,51,21,51,0.36
2013-12-16,31,29,27,32,28,22,58,49,43,30.25,30.04,22,10,27,0.00
2013-12-17,38,28,24,27,23,20,98,85,54,30.27,29.93,31,12,32,0.04
2013-12-18,36,31,22,35,27,23,93,77,59,30.17,29.89,27,11,27,0.00
2013-12-19,47,39,31,36,30,24,84,68,46,30.19,30.03,24,7,24,0.00
2013-12-20,50,44,39,39,35,31,94,83,64,30.15,30.00,18,6,20,0.00
2013-12-21,54,49,43,47,43,38,97,92,81,30.05,29.94,20,10,20,0.00
2013-12-22,60,54,50,51,49,46,99,95,82,30.01,29.86,39,15,41,0.00
2013-12-23,54,47,41,49,45,41,99,96,82,30.12,29.91,23,6,23,0.28
2013-12-24,41,36,30,41,37,31,81,63,48,30.29,30.07,25,10,25,0.01
2013-12-25,32,25,20,31,26,21,76,58,46,30.57,30.29,28,7,28,0.00
2013-12-26,40,36,32,31,27,24,90,79,71,30.48,30.14,32,6,32,0.00
2013-12-27,39,36,32,35,29,25,82,67,52,30.35,30.26,23,10,23,0.00
2013-12-28,50,42,34,40,33,26,87,71,44,30.30,30.09,27,8,33,0.00
2013-12-29,53,43,41,39,36,33,99,88,71,30.09,29.35,33,9,33,0.60
2013-12-30,44,36,22,38,34,26,93,75,52,30.20,29.63,27,11,27,0.00
2013-12-31,34,25,19,30,24,21,75,64,50,30.26,30.09,32,8,33,0.00
2014-1-1,32,29,26,26,22,16,69,58,52,30.44,30.25,24,8,26,0.00
2014-1-2,32,27,15,24,23,20,95,90,69,30.33,29.71,32,20,35,0.00